Location: Unspecified
(44.0704°N, 88.6889°W)
Time: 05:45:51
(UTC+02:00)

Altair - Pass Details

Date: 24 June 2019
Orbit: 1501 x 1683 km, 47.2° (Epoch: 12 October)

Event Time Altitude Azimuth Distance (km) Brightness Sun altitude
Rises 10:12:05 0° 294° (WNW) 4,862 10.0 -15.8°
Reaches altitude 10° 10:15:29 10° 287° (WNW) 3,894 9.5 -15.5°
Maximum altitude 10:24:17 37° 225° (SW) 2,396 8.0 -14.6°
Drops below altitude 10° 10:33:14 10° 163° (SSE) 3,935 9.3 -13.6°
Sets 10:36:43 0° 155° (SSE) 4,918 9.9 -13.3°
